When you browse on this site, cookies collect data to enhance your experience and personalize the content and advertising you see.
Visit our Privacy Policy to learn more. By continuing to use the site, you agree to this use of cookies and data.
  • In Spain
  • List of Countries
  • For 7 days
  • Water Temperature
  • Satellite Maps
  • Weather Map
  • Weather Widgets
  • user-avatar
    Login

    Hourly Weather Kurylivka

    Today, 24 May, Friday

    Time Temperature Precipitation Wind Pressure Humidity
    00:00 +15°C° 0 mm 1 mps 741 mmHg 86%
    01:00 +15°C° 0 mm 1 mps 741 mmHg 87%
    02:00 +15°C° 0 mm 1 mps 741 mmHg 87%
    03:00 +15°C° 0.3 mm 1 mps 741 mmHg 88%
    04:00 +15°C° 0.3 mm 1 mps 741 mmHg 88%
    05:00 +15°C° 0.3 mm 2 mps 741 mmHg 89%
    06:00 +18°C° 0 mm 1 mps 741 mmHg 83%
    07:00 +20°C° 0 mm 1 mps 742 mmHg 78%
    08:00 +22°C° 0 mm 1 mps 742 mmHg 73%
    09:00 +23°C° 0.3 mm 1 mps 742 mmHg 67%
    10:00 +24°C° 0.3 mm 1 mps 741 mmHg 62%
    11:00 +25°C° 0.3 mm 2 mps 741 mmHg 56%
    12:00 +25°C° 0 mm 2 mps 741 mmHg 54%
    13:00 +26°C° 0 mm 2 mps 741 mmHg 51%
    14:00 +26°C° 0 mm 2 mps 741 mmHg 49%
    15:00 +26°C° 0 mm 2 mps 741 mmHg 51%
    16:00 +26°C° 0 mm 2 mps 741 mmHg 54%
    17:00 +26°C° 0 mm 2 mps 740 mmHg 57%
    18:00 +24°C° 0 mm 2 mps 740 mmHg 62%
    19:00 +21°C° 0 mm 2 mps 740 mmHg 67%
    20:00 +19°C° 0 mm 2 mps 740 mmHg 72%
    21:00 +18°C° 0.4 mm 2 mps 740 mmHg 75%
    22:00 +18°C° 0.4 mm 1 mps 740 mmHg 77%
    23:00 +18°C° 0.4 mm 1 mps 740 mmHg 80%

    Tomorrow, 25 May, Saturday

    Time Temperature Precipitation Wind Pressure Humidity
    00:00 +16°C° 0.7 mm 1 mps 740 mmHg 82%
    01:00 +16°C° 0.7 mm 1 mps 740 mmHg 84%
    02:00 +15°C° 0.7 mm 1 mps 739 mmHg 87%
    03:00 +15°C° 0 mm 1 mps 739 mmHg 87%
    04:00 +15°C° 0 mm 1 mps 739 mmHg 88%
    05:00 +15°C° 0 mm 1 mps 739 mmHg 89%
    06:00 +18°C° 0 mm 1 mps 739 mmHg 84%
    07:00 +19°C° 0 mm 1 mps 739 mmHg 80%
    08:00 +21°C° 0 mm 1 mps 739 mmHg 75%
    09:00 +22°C° 0.3 mm 1 mps 739 mmHg 69%
    10:00 +23°C° 0.3 mm 1 mps 739 mmHg 63%
    11:00 +25°C° 0.3 mm 2 mps 739 mmHg 58%
    12:00 +25°C° 0.8 mm 1 mps 739 mmHg 56%
    13:00 +25°C° 0.8 mm 1 mps 739 mmHg 55%
    14:00 +24°C° 0.8 mm 0 mps 738 mmHg 53%
    15:00 +26°C° 0.5 mm 1 mps 738 mmHg 58%
    16:00 +25°C° 0.5 mm 2 mps 738 mmHg 62%
    17:00 +25°C° 0.5 mm 2 mps 738 mmHg 66%
    18:00 +23°C° 0.3 mm 2 mps 738 mmHg 72%
    19:00 +20°C° 0.3 mm 2 mps 738 mmHg 79%
    20:00 +18°C° 0.3 mm 2 mps 738 mmHg 85%
    21:00 +18°C° 0.1 mm 2 mps 739 mmHg 86%
    22:00 +17°C° 0.1 mm 3 mps 739 mmHg 88%
    23:00 +17°C° 0.1 mm 3 mps 739 mmHg 90%

    Day after tomorrow, 26 May, Sunday

    Time Temperature Precipitation Wind Pressure Humidity
    00:00 +16°C° 0.1 mm 3 mps 739 mmHg 91%
    01:00 +16°C° 0.1 mm 3 mps 739 mmHg 91%
    02:00 +15°C° 0.1 mm 4 mps 739 mmHg 92%
    03:00 +15°C° 0 mm 4 mps 740 mmHg 91%
    04:00 +15°C° 0 mm 4 mps 740 mmHg 91%
    05:00 +14°C° 0 mm 4 mps 740 mmHg 90%
    06:00 +15°C° 0 mm 4 mps 741 mmHg 85%
    07:00 +18°C° 0 mm 4 mps 741 mmHg 81%
    08:00 +19°C° 0 mm 4 mps 741 mmHg 76%
    09:00 +20°C° 0 mm 4 mps 742 mmHg 71%
    10:00 +21°C° 0 mm 4 mps 742 mmHg 65%
    11:00 +22°C° 0 mm 4 mps 742 mmHg 60%
    12:00 +22°C° 0.2 mm 5 mps 742 mmHg 61%
    13:00 +23°C° 0.2 mm 5 mps 742 mmHg 62%
    14:00 +23°C° 0.2 mm 5 mps 742 mmHg 63%
    15:00 +23°C° 0.1 mm 5 mps 742 mmHg 64%
    16:00 +22°C° 0.1 mm 5 mps 742 mmHg 66%
    17:00 +22°C° 0.1 mm 5 mps 742 mmHg 67%
    18:00 +21°C° 0 mm 4 mps 743 mmHg 72%
    19:00 +19°C° 0 mm 4 mps 743 mmHg 77%
    20:00 +17°C° 0 mm 3 mps 743 mmHg 82%
    21:00 +17°C° 0 mm 3 mps 744 mmHg 84%
    22:00 +16°C° 0 mm 3 mps 744 mmHg 85%
    23:00 +14°C° 0 mm 3 mps 744 mmHg 86%

    27 May, Monday

    Time Temperature Precipitation Wind Pressure Humidity
    00:00 +14°C° 0 mm 3 mps 744 mmHg 86%
    01:00 +14°C° 0 mm 2 mps 745 mmHg 86%
    02:00 +14°C° 0 mm 2 mps 745 mmHg 87%
    03:00 +14°C° 0 mm 2 mps 745 mmHg 88%
    04:00 +14°C° 0 mm 2 mps 745 mmHg 89%
    05:00 +15°C° 0 mm 2 mps 745 mmHg 90%
    06:00 +17°C° 0 mm 2 mps 745 mmHg 84%
    07:00 +19°C° 0 mm 2 mps 746 mmHg 79%
    08:00 +21°C° 0 mm 3 mps 746 mmHg 74%
    09:00 +22°C° 0.3 mm 3 mps 746 mmHg 71%
    10:00 +24°C° 0.3 mm 3 mps 746 mmHg 68%
    11:00 +25°C° 0.3 mm 4 mps 746 mmHg 64%
    12:00 +25°C° 0.3 mm 4 mps 746 mmHg 64%
    13:00 +26°C° 0.3 mm 5 mps 746 mmHg 63%
    14:00 +26°C° 0.3 mm 5 mps 746 mmHg 63%
    15:00 +26°C° 0.1 mm 5 mps 746 mmHg 64%
    16:00 +26°C° 0.1 mm 4 mps 746 mmHg 66%
    17:00 +26°C° 0.1 mm 4 mps 746 mmHg 68%
    18:00 +24°C° 0.1 mm 3 mps 746 mmHg 73%
    19:00 +22°C° 0.1 mm 3 mps 746 mmHg 78%
    20:00 +20°C° 0.1 mm 3 mps 746 mmHg 83%
    21:00 +20°C° 0 mm 3 mps 746 mmHg 84%
    22:00 +19°C° 0 mm 3 mps 746 mmHg 85%
    23:00 +19°C° 0 mm 4 mps 746 mmHg 85%

    28 May, Tuesday

    Time Temperature Precipitation Wind Pressure Humidity
    00:00 +18°C° 0 mm 4 mps 746 mmHg 85%
    01:00 +18°C° 0 mm 4 mps 746 mmHg 85%
    02:00 +18°C° 0 mm 4 mps 746 mmHg 84%
    03:00 +17°C° 0 mm 4 mps 746 mmHg 85%
    04:00 +17°C° 0 mm 4 mps 746 mmHg 85%
    05:00 +16°C° 0 mm 3 mps 746 mmHg 85%
    06:00 +18°C° 0 mm 4 mps 746 mmHg 80%
    07:00 +19°C° 0 mm 5 mps 747 mmHg 75%
    08:00 +21°C° 0 mm 5 mps 747 mmHg 70%
    09:00 +22°C° 0 mm 6 mps 747 mmHg 67%
    10:00 +24°C° 0 mm 6 mps 747 mmHg 64%
    11:00 +26°C° 0 mm 7 mps 746 mmHg 61%
    12:00 +26°C° 0 mm 6 mps 746 mmHg 61%
    13:00 +27°C° 0 mm 6 mps 746 mmHg 62%
    14:00 +27°C° 0 mm 6 mps 746 mmHg 62%
    15:00 +27°C° 0 mm 5 mps 745 mmHg 63%
    16:00 +27°C° 0 mm 5 mps 745 mmHg 64%
    17:00 +27°C° 0 mm 5 mps 745 mmHg 65%
    18:00 +26°C° 0 mm 5 mps 744 mmHg 66%
    19:00 +23°C° 0 mm 5 mps 744 mmHg 68%
    20:00 +22°C° 0 mm 5 mps 744 mmHg 70%
    21:00 +21°C° 0 mm 5 mps 744 mmHg 72%
    22:00 +20°C° 0 mm 6 mps 744 mmHg 74%
    23:00 +20°C° 0 mm 6 mps 744 mmHg 75%

    29 May, Wednesday

    Time Temperature Precipitation Wind Pressure Humidity
    00:00 +19°C° 0 mm 5 mps 744 mmHg 77%
    01:00 +17°C° 0 mm 5 mps 744 mmHg 79%
    02:00 +17°C° 0 mm 5 mps 744 mmHg 81%
    03:00 +17°C° 0 mm 5 mps 744 mmHg 83%
    04:00 +16°C° 0 mm 5 mps 744 mmHg 84%
    05:00 +16°C° 0 mm 5 mps 744 mmHg 86%
    06:00 +19°C° 0 mm 6 mps 744 mmHg 80%
    07:00 +20°C° 0 mm 6 mps 744 mmHg 75%
    08:00 +22°C° 0 mm 6 mps 744 mmHg 70%
    09:00 +23°C° 0 mm 6 mps 744 mmHg 65%
    10:00 +24°C° 0 mm 6 mps 744 mmHg 61%
    11:00 +27°C° 0 mm 6 mps 744 mmHg 57%
    12:00 +28°C° 0 mm 6 mps 744 mmHg 55%
    13:00 +28°C° 0 mm 7 mps 744 mmHg 53%
    14:00 +29°C° 0 mm 7 mps 743 mmHg 51%
    15:00 +29°C° 0 mm 6 mps 743 mmHg 55%
    16:00 +29°C° 0 mm 5 mps 743 mmHg 58%
    17:00 +29°C° 0 mm 4 mps 743 mmHg 62%
    18:00 +27°C° 0 mm 3 mps 743 mmHg 66%
    19:00 +25°C° 0 mm 3 mps 743 mmHg 70%
    20:00 +22°C° 0 mm 3 mps 743 mmHg 74%
    21:00 +21°C° 0 mm 3 mps 743 mmHg 75%
    22:00 +20°C° 0 mm 3 mps 743 mmHg 77%
    23:00 +18°C° 0 mm 3 mps 744 mmHg 79%
    Show more